This demonstration page uses our WeatherBlox Daily Observations layout. Learn more.

41.55636, -103.73856

Hourly Observations for January 17, 2018

Temp ( °F °C ) Dew Point ( °F °C ) Humidity (%) Winds ( mph kmh ) Pressure ( in mb ) Visibility ( mi km ) Precip ( " mm )
12:53 am 00:53 Clear 7 -13.9 3 -16.1 84 84 WNW 3 6 30.45 1031 10 16.09344 0 0
1:53 am 01:53 Clear 4 -15.6 1 -17.2 88 88 NW 7 11 30.45 1031 10 16.09344 0 0
2:53 am 02:53 Clear 5 -15 1 -17.2 83 83 NW 9 15 30.45 1031 10 16.09344 0 0
3:53 am 03:53 Clear 5 -15 1 -17.2 83 83 NW 9 15 30.45 1031 10 16.09344 0 0
4:53 am 04:53 Clear 5 -15 1 -17.2 83 83 NW 13 20 30.45 1031 10 16.09344 0 0
5:53 am 05:53 Clear 4 -15.6 0 -17.8 83 83 NW 10 17 30.45 1031 10 16.09344 0 0
6:53 am 06:53 Clear 5 -15 1 -17.2 83 83 NW 13 20 30.48 1032 10 16.09344 0 0
7:53 am 07:53 Sunny 8 -13.3 3 -16.1 80 80 NW 13 20 30.48 1032 10 16.09344 0 0
8:53 am 08:53 Sunny 13 -10.6 6 -14.4 74 74 NW 10 17 30.48 1032 10 16.09344 0 0
9:53 am 09:53 Sunny 19 -7.2 10 -12.2 68 68 WNW 8 13 30.48 1032 10 16.09344 0 0
10:53 am 10:53 Sunny 25 -3.9 13 -10.6 60 60 NW 9 15 30.48 1032 10 16.09344 0 0
11:53 am 11:53 Sunny 30 -1.1 18 -7.8 61 61 NW 8 13 30.45 1031 10 16.09344 0 0
12:53 pm 12:53 Sunny 38 3.3 23 -5 55 55 NW 9 15 30.39 1029 10 16.09344 0 0
1:53 pm 13:53 Sunny 40 4.4 25 -3.9 55 55 WSW 3 6 30.39 1029 10 16.09344 0 0
2:53 pm 14:53 Sunny 44 6.7 23 -5 43 43 NW 5 7 30.36 1028 10 16.09344 0 0
3:53 pm 15:53 Sunny 41 5 21 -6.1 45 45 Calm 30.36 1028 10 16.09344 0 0
4:53 pm 16:53 Clear 36 2.2 21 -6.1 55 55 SSW 5 7 30.39 1029 10 16.09344 0 0
5:53 pm 17:53 Clear 26 -3.3 17 -8.3 69 69 E 3 6 30.42 1030 10 16.09344 0 0
6:53 pm 18:53 Clear 23 -5 16 -8.9 74 74 NE 7 11 30.39 1029 10 16.09344 0 0
7:53 pm 19:53 Clear 25 -3.9 17 -8.3 72 72 SE 3 6 30.36 1028 10 16.09344 0 0
8:53 pm 20:53 Clear 21 -6.1 15 -9.4 78 78 E 3 6 30.33 1027 10 16.09344 0 0
9:53 pm 21:53 Clear 23 -5 18 -7.8 81 81 Calm 30.3 1026 10 16.09344 0 0
10:53 pm 22:53 Clear 15 -9.4 12 -11.1 88 88 N 6 9 30.3 1026 10 16.09344 0 0
11:53 pm 23:53 Clear 17 -8.3 13 -10.6 84 84 NNE 5 7 30.27 1025 10 16.09344 0 0

Powered by AerisWeather